Regional Weather Roundup
Issued by NWS

Home | Current Version | Previous Version | Text Only | Print | Product List | Glossary On
Versions: 1 2 3 4 5 6 7 8 9 10 11 12 13 14 15 16 17 18 19 20 21 22 23 24 25 26 27 28 29 30 31 32 33 34 35 36 37 38 39 40 41 42 43 44 45 46 47 48 49 50
000
ASUS43 KOAX 241210
RWRNE

WEATHER ROUNDUP FOR NEBRASKA
NATIONAL WEATHER SERVICE OMAHA NE
700 AM CDT THU APR 24 2014

NOTES: SATELLITE DATA IS BEING USED TO AUGMENT CLOUD COVER ABOVE
       12000 FEET.
       "FAIR" INDICATES FEW OR NO CLOUDS BELOW 12,000 FEET WITH NO
       SIGNIFICANT WEATHER AND/OR OBSTRUCTIONS TO VISIBILITY.

  * THESE STATIONS DO NOT REPORT WEATHER SUCH AS RAIN...SNOW OR FOG.

NEZ001>004-019>022-054>056-241300-
NEBRASKA PANHANDLE

CITY           SKY/WX    TMP DP  RH WIND       PRES   REMARKS
SCOTTSBLUFF    CLEAR     30  24  78 NW6       29.95R WCI  24
6HR MIN TEMP:  29; 6HR MAX TEMP:  49;

ALLIANCE       CLEAR     27  25  92 W8        29.90S WCI  19
6HR MIN TEMP:  27; 6HR MAX TEMP:  47;

CHADRON        CLEAR     34  29  82 SW6       29.91R WCI  29
6HR MIN TEMP:  33; 6HR MAX TEMP:  46;

KIMBALL        CLEAR     34  15  46 W16       29.94S WCI  23
SIDNEY         CLEAR     35  21  56 W10       29.94R WCI  27
6HR MIN TEMP:  34; 6HR MAX TEMP:  51;

$$

NEZ057>060-069>072-079>082-241300-
SOUTHWEST NEBRASKA

CITY           SKY/WX    TMP DP  RH WIND       PRES   REMARKS
NORTH PLATTE   MOCLDY    44  34  67 W12       29.84R
6HR MIN TEMP:  44; 6HR MAX TEMP:  57; 6HR PCP: TRACE;

IMPERIAL       CLOUDY    46  35  65 NW14      29.89R
6HR MIN TEMP:  46; 6HR MAX TEMP:  53;

LEXINGTON      MOCLDY    49  38  66 NW8       29.80R
MCCOOK         CLOUDY    51  35  54 N14       29.83R
6HR MIN TEMP:  51; 6HR MAX TEMP:  59;

OGALLALA       MOCLDY    43  33  66 NW15      29.89R
$$

NEZ005>010-023>029-035>040-094-241300-
NORTH CENTRAL NEBRASKA

CITY           SKY/WX    TMP DP  RH WIND       PRES   REMARKS
VALENTINE      PTCLDY    41  32  70 W12       29.82R
6HR MIN TEMP:  41; 6HR MAX TEMP:  51;

AINSWORTH      MOCLDY    46  33  60 NW9       29.80R
BROKEN BOW     CLOUDY    48  34  58 NW13      29.79R
6HR MIN TEMP:  48; 6HR MAX TEMP:  54; 6HR PCP: TRACE;

O`NEILL        CLOUDY    50  35  57 NW13      29.76R
ORD            CLOUDY    49  39  68 NW10      29.75R
6HR MIN TEMP:  49; 6HR MAX TEMP:  53; 6HR PCP:  0.07;

THEDFORD       PTCLDY    44  33  64 NW9       29.84R
$$

NEZ041-046>049-061>064-073>077-083>087-241300-
SOUTH CENTRAL NEBRASKA

CITY           SKY/WX    TMP DP  RH WIND       PRES   REMARKS
GRAND ISLAND   CLOUDY    50  45  83 NW13      29.75R
6HR MIN TEMP:  50; 6HR MAX TEMP:  56; 6HR PCP:  0.68;

AURORA         CLOUDY    51  48  89 NW15      29.72R
HASTINGS       CLOUDY    51  43  74 NW17G24   29.74R
6HR MIN TEMP:  50; 6HR MAX TEMP:  57; 6HR PCP:  0.41;

HEBRON         CLOUDY    52  48  85 N16G22    29.68R
HOLDREGE       CLOUDY    51  40  67 NW12      29.77S
KEARNEY *      CLOUDY    50  43  76 NW10      29.78R
YORK           CLOUDY    50  48  93 NW13      29.69R
$$

NEZ011>018-030>034-042>045-241300-
NORTHEAST NEBRASKA

CITY           SKY/WX    TMP DP  RH WIND       PRES   REMARKS
NORFOLK        CLOUDY    51  44  77 NW14      29.66S
6HR MIN TEMP:  51; 6HR MAX TEMP:  56; 6HR PCP:  0.75;

ALBION         CLOUDY    51  41  69 NW15      29.70S
BLAIR          LGT RAIN  47  45  92 SW5       29.66R
COLUMBUS *     CLOUDY    52  45  76 NW9       29.68S
FREMONT        CLOUDY    49  47  96 CALM      29.67R FOG
TEKAMAH        CLOUDY    49  46  90 SW3       29.66R
6HR MIN TEMP:  49; 6HR MAX TEMP:  52; 6HR PCP:  0.05;

$$

NEZ050>053-065>068-078-088>093-241300-
SOUTHEAST NEBRASKA

CITY           SKY/WX    TMP DP  RH WIND       PRES   REMARKS
LINCOLN        LGT RAIN  51  48  89 N10       29.62F FOG
6HR MIN TEMP:  51; 6HR MAX TEMP:  54; 6HR PCP:  0.39;

OMAHA EPPLEY   RAIN      49  46  90 W5        29.68R FOG
6HR MIN TEMP:  48; 6HR MAX TEMP:  51; 6HR PCP:  0.08;

BEATRICE       CLOUDY    52  51  96 NW12      29.66R FOG
FALLS CITY     TSTM      53  53 100 NW8       29.67F FOG
6HR MIN TEMP:  53; 6HR MAX TEMP:  69; 6HR PCP:  0.12;

NEBRASKA CITY  RAIN      50  50 100 W7        29.69R
PLATTSMOUTH    HVY RAIN  49  47  93 W7        29.69R
$$

NEZ044-045-051>053-067-241300-
OMAHA AREA

CITY           SKY/WX    TMP DP  RH WIND       PRES   REMARKS
OMAHA EPPLEY   RAIN      49  46  90 W5        29.68R FOG
6HR MIN TEMP:  48; 6HR MAX TEMP:  51; 6HR PCP:  0.08;

BLAIR          LGT RAIN  47  45  92 SW5       29.66R
FREMONT        CLOUDY    49  47  96 CALM      29.67R FOG
MILLARD        RAIN      49  46  92 CALM      29.68R
OFFUTT AFB     HVY RAIN  50  50 100 SW6       29.68R FOG
PLATTSMOUTH    HVY RAIN  49  47  93 W7        29.69R
WAHOO          DRIZZLE   49  47  90 SW3       29.68R
$$



USA.gov is the U.S. government's official web portal to all federal, state and local government web resources and services.